Regional Weather Roundup
Issued by NWS

Home | Current Version | Previous Version | Text Only | Print | Product List | Glossary Off
Versions: 1 2 3 4 5 6 7 8 9 10 11 12 13 14 15 16 17 18 19 20 21 22 23 24 25 26 27 28 29 30 31 32 33 34 35 36 37 38 39 40 41 42 43 44 45 46 47 48 49 50

982
ASUS45 KBOU 080807
RWRCO

WEATHER ROUNDUP FOR COLORADO
NATIONAL WEATHER SERVICE DENVER/BOULDER CO
100 AM MST THU DEC 08 2016

NOTE: "FAIR" INDICATES FEW OR NO CLOUDS BELOW 12000 FEET WITH NO
SIGNIFICANT WEATHER AND/OR OBSTRUCTIONS TO VISIBILITY.

COZ001>005-013-030-031-080900-
...NORTHWEST COLORADO...

CITY           SKY/WX    TMP DP  RH WIND       PRES   REMARKS
CRAIG          FAIR      -8 -14  74 SW3       30.30F
HAYDEN         FAIR      -2 -11  65 E13       30.26S WCI -21
MEEKER         FAIR      -7 -13  75 CALM      30.27F
MOUNT WERNER   NOT AVBL
STEAMBOAT SPGS FAIR      -8 -11  83 CALM      30.27R
WALDEN           N/A    -17 -26  63 SE5       30.20S WCI -29
$$

COZ006>008-011-080900-
...WEST CENTRAL VALLEYS...

CITY           SKY/WX    TMP DP  RH WIND       PRES   REMARKS
GRAND JUNCTION FAIR      19   7  59 E12       30.31S WCI   7
MONTROSE       FAIR      11   4  73 SE10      30.33R WCI  -3
EAGLE          FAIR      -4  -8  83 E6        30.34R WCI -16
RIFLE          FAIR       7   0  73 SE3       30.33S
DELTA          NOT AVBL
NUCLA          FAIR      12   1  62 E9        30.31S WCI   0
$$

COZ017>023-064>068-080900-
...SOUTHWEST COLORADO...

CITY           SKY/WX    TMP DP  RH WIND       PRES   REMARKS
DURANGO        FAIR      10  -1  61 CALM      30.23R
CORTEZ         FAIR      11   4  73 NE5       30.26S WCI   3
PAGOSA SPRINGS FAIR       7  -2  66 CALM      30.22R
TELLURIDE      FAIR       6  -6  58 SE6       30.16R WCI  -4
WOLF CREEK PAS FAIR      -2  -8  78 S14G21    30.09S WCI -21
$$

COZ009-010-012-014-032>034-037-058>063-080900-
...CENTRAL COLORADO...

CITY           SKY/WX    TMP DP  RH WIND       PRES   REMARKS
ASPEN          FAIR      -5 -10  79 S6        30.20S WCI -18
BUENA VISTA    FLURRIES   0  -6  74 W3        30.22R
COPPER MTN     FAIR      -4 -11  71 MISG      29.98S
BERTHOUD PASS  FAIR     -13 -24  58 MISG      29.89F
COTTONWOOD PAS FAIR       3  -4  72 CALM      30.09F
GUNNISON       FAIR      -5 -11  75 N3        30.26R
KREMMLING      FAIR      -9 -15  77 CALM      30.29R HAZE
LEADVILLE      FAIR     -14 -19  79 NE8       30.07S WCI -31
MONARCH PASS   FAIR      -4  -8  84 W26       30.10S WCI -30
SALIDA         CLOUDY     4  -2  76 CALM      30.32R
SUNLIGHT       FAIR     N/A N/A N/A S7        30.11S
WILKERSON PASS FAIR      -4 -11  71 SW6       30.03S WCI -16
$$

COZ069>075-080900-
...SAN LUIS VALLEY/SANGRE DE CRISTO MOUNTAINS...

CITY           SKY/WX    TMP DP  RH WIND       PRES   REMARKS
ALAMOSA        FAIR      -3  -6  87 SE3       30.20S
LA VETA PASS   FAIR       3   0  85 NE16G22   30.09S WCI -16
SAGUACHE       FAIR       7  -4  61 NW10      30.20S WCI  -8
$$

COZ035-036-038>040-080900-
...NORTHERN COLORADO FRONT RANGE...

CITY           SKY/WX    TMP DP  RH WIND       PRES   REMARKS
DENVER INTL AP FAIR      -1  -6  79 SE6       30.36F WCI -13
DMNS CITY PARK   N/A      5   1  84 E8G14     30.38S WCI  -9
AURORA         PTCLDY    -2  -6  84 SE7       30.35F WCI -16
FRONT RANGE AP FAIR      -6 -13  71 S7        30.37F WCI -20
ERIE MUNI ARPT FAIR      -4  -9  81 CALM      30.40S
BOULDER MUN AP CLOUDY     9   1  72 CALM      30.38S
CENTENNIAL     FAIR      -2  -6  83 S6        30.33F WCI -14
BROOMFIELD     CLOUDY     9   3  78 CALM      30.36S
FORT COLLINS   FAIR       1   0  92 S5        30.41S WCI  -8
LONGMONT       CLOUDY     3  -1  81 CALM      30.43S
$$

COZ041-046-047-076>085-087-088-080900-
...PIKES PEAK/PALMER DIVIDE AND SOUTHERN FOOTHILLS...

CITY           SKY/WX    TMP DP  RH WIND       PRES   REMARKS
COLO. SPRINGS  LGT SNOW   8   4  83 S7        30.34S FOG     WCI  -3
A. F. ACADEMY  FLURRIES   7   3  85 S7        30.29R WCI  -5
SCHRIEVER AFB  NOT AVBL
ELLICOTT       LGT RAIN N/A N/A N/A CALM        N/A
FALCON         LGT SNOW   6   4  91 SW7       30.29S WCI  -5
FORT CARSON    NOT AVBL
LIMON          FAIR     -16 -19  87 N5        30.39F WCI -29
MONUMENT HILL  FLURRIES  -4  -8  84 CALM      30.26S
TRINIDAD       CLOUDY    12   9  87 E5        30.36S WCI   4
$$

COZ042>045-048>051-090-091-080900-
...NORTHEAST COLORADO...

CITY           SKY/WX    TMP DP  RH WIND       PRES   REMARKS
GREELEY ARPT   FAIR     -12 -17  78 N3        30.46S
AKRON          FAIR      -6 -11  79 W8        30.43F WCI -21
BURLINGTON     FAIR      -1  -8  72 W10       30.48S WCI -17
WRAY           NOT AVBL
STERLING       FAIR      -9 -15  77 S8        30.49S WCI -26
HOLYOKE        FAIR       1  -6  71 W14       30.50S WCI -17
FORT MORGAN    FAIR      -7 -12  78 W8        30.47S WCI -22
$$

COZ086-089-092>099-080900-
...SOUTHEAST COLORADO...

CITY           SKY/WX    TMP DP  RH WIND       PRES   REMARKS
PUEBLO         CLOUDY    15   7  70 SE7       30.43F WCI   5
LA JUNTA       MOCLDY    13   4  67 CALM      30.49R
LAMAR          FAIR       7   1  76 SW3       30.50S
SPRINGFIELD      N/A     12   4  70 N9        30.45S WCI   0
$$




USA.gov is the U.S. government's official web portal to all federal, state and local government web resources and services.